Flag for Brazil Weather past 2 weeks in Vitória, Espírito Santo, Brazil

Now
81 °F

Passing clouds.


Feels Like: 81 °F
Forecast: 73 / 89 °F
Wind: 5 mph from Southeast

Location: Belo Horizonte Airport

Current Time: Sep 30, 2014 at 9:32:32 AM

Latest Report: Sep 30, 2014 at 9:00 AM


Visibility: N/A

Pressure: 30.12 "Hg

Humidity: 45%

Dew point: 57 °F

Location of VitóriaLocation

Historic Weather in Vitória — Graph

°F

Vitória temperature yesterday

Maximum temperature yesterday: 90 °F (at 2:00 PM)
Minimum temperature yesterday: 70 °F (at 5:00 AM)
Average temperature yesterday: 79 °F

Past Weeks' High & Low Weather Summary

 TemperatureHumidityPressure
High90 °F (Sep 16, 2:00 PM)100% (Sep 26, 6:00 AM)30.21 "Hg (Sep 26, 6:00 AM)
Low32 °F (Sep 26, 6:00 AM)17% (Sep 15, 6:00 PM)29.95 "Hg (Sep 21, 2:00 PM)
Average75 °F46%30.09 "Hg
* Reported Sep 15 8:00 AM — Sep 30 8:00 AM, Vitória, Weather by CustomWeather, © 2014

Note: Actual official high and low records may vary slightly from our data, if they occured in-between our weather recording intervals... More about our weather records

Advertising

Vitória weather history for previous 24 hours

 ConditionsComfort  
Time TempWeatherWind HumidityBarometerVisibility
8:00 AM
Sep 30
79 °FSunny.8 mph51%30.12 "Hg10 mi
7:00 AM73 °FSunny.5 mph61%30.12 "Hg10 mi
6:00 AM70 °FSunny.5 mph69%30.09 "Hg10 mi
5:00 AM72 °FClear.3 mph65%30.07 "Hg10 mi
4:00 AM72 °FClear.5 mph65%30.04 "Hg10 mi
3:00 AM73 °FClear.3 mph61%30.04 "Hg10 mi
2:00 AM73 °FClear.2 mph61%30.04 "Hg10 mi
1:00 AM75 °FClear.7 mph57%30.07 "Hg10 mi
12:00 AM75 °FClear.9 mph57%30.07 "Hg10 mi
11:00 PM
Sep 29
75 °FClear.12 mph57%30.09 "Hg10 mi
10:00 PM77 °FClear.9 mph54%30.09 "Hg10 mi
9:00 PM79 °FClear.12 mph48%30.07 "Hg10 mi
8:00 PM81 °FClear.7 mph45%30.04 "Hg10 mi
7:00 PM82 °FClear.9 mph42%30.04 "Hg10 mi
6:00 PM86 °FPassing clouds.7 mph31%30.01 "HgN/A
5:00 PM88 °FPassing clouds.8 mph31%29.98 "HgN/A
4:00 PM90 °FPassing clouds.6 mph27%29.98 "HgN/A
3:00 PM88 °FScattered clouds.7 mph31%30.01 "HgN/A
2:00 PM90 °FPassing clouds.6 mph29%30.04 "HgN/A
1:00 PM88 °FPassing clouds.7 mph31%30.07 "HgN/A
12:00 PM86 °FSunny.7 mph33%30.09 "Hg10 mi
11:00 AM82 °FSunny.7 mph40%30.12 "Hg10 mi
10:00 AM81 °FSunny.7 mph45%30.15 "Hg10 mi
9:00 AM77 °FSunny.8 mph51%30.15 "Hg10 mi
Weather by CustomWeather, © 2014

See weather overviewHow to use our weather pages